• In Uzbekistan
  • List of Countries
  • For 7 days
  • Water Temperature
  • Weather Map
  • Weather Widgets
  • user-avatar
    Login

    Hourly Weather Kaposvar

    Today, 26 January, Sunday

    Time Temperature Precipitation Wind Pressure Humidity
    00:00 +3°C° 0 mm 1 mps 752 mmHg 91%
    01:00 +3°C° 0 mm 1 mps 752 mmHg 91%
    02:00 +2°C° 0 mm 1 mps 752 mmHg 92%
    03:00 +2°C° 0 mm 1 mps 751 mmHg 93%
    04:00 +2°C° 0 mm 1 mps 751 mmHg 93%
    05:00 +2°C° 0 mm 1 mps 751 mmHg 93%
    06:00 +2°C° 0 mm 1 mps 751 mmHg 93%
    07:00 +2°C° 0 mm 1 mps 751 mmHg 93%
    08:00 +3°C° 0 mm 1 mps 751 mmHg 90%
    09:00 +4°C° 0 mm 1 mps 751 mmHg 87%
    10:00 +5°C° 0 mm 1 mps 752 mmHg 84%
    11:00 +6°C° 0 mm 1 mps 751 mmHg 81%
    12:00 +7°C° 0 mm 1 mps 751 mmHg 78%
    13:00 +8°C° 0 mm 1 mps 750 mmHg 75%
    14:00 +8°C° 0 mm 1 mps 750 mmHg 77%
    15:00 +6°C° 0 mm 2 mps 750 mmHg 79%
    16:00 +6°C° 0 mm 2 mps 750 mmHg 80%
    17:00 +6°C° 0 mm 2 mps 750 mmHg 81%
    18:00 +5°C° 0 mm 2 mps 750 mmHg 82%
    19:00 +5°C° 0 mm 2 mps 750 mmHg 83%
    20:00 +4°C° 0 mm 2 mps 749 mmHg 84%
    21:00 +4°C° 0 mm 2 mps 749 mmHg 85%
    22:00 +4°C° 0 mm 2 mps 749 mmHg 85%
    23:00 +4°C° 0 mm 2 mps 749 mmHg 86%

    Tomorrow, 27 January, Monday

    Time Temperature Precipitation Wind Pressure Humidity
    00:00 +4°C° 0 mm 2 mps 749 mmHg 87%
    01:00 +4°C° 0 mm 2 mps 749 mmHg 88%
    02:00 +5°C° 0 mm 1 mps 749 mmHg 88%
    03:00 +4°C° 0 mm 1 mps 749 mmHg 89%
    04:00 +4°C° 0 mm 1 mps 748 mmHg 89%
    05:00 +4°C° 0 mm 1 mps 749 mmHg 89%
    06:00 +4°C° 0 mm 1 mps 749 mmHg 89%
    07:00 +3°C° 0 mm 0 mps 749 mmHg 89%
    08:00 +4°C° 0 mm 1 mps 749 mmHg 87%
    09:00 +5°C° 0 mm 1 mps 749 mmHg 85%
    10:00 +5°C° 0 mm 1 mps 749 mmHg 83%
    11:00 +6°C° 0 mm 1 mps 749 mmHg 80%
    12:00 +7°C° 0 mm 1 mps 749 mmHg 78%
    13:00 +8°C° 0 mm 1 mps 748 mmHg 75%
    14:00 +8°C° 0 mm 1 mps 748 mmHg 76%
    15:00 +8°C° 0 mm 1 mps 748 mmHg 77%
    16:00 +8°C° 0 mm 1 mps 748 mmHg 78%
    17:00 +7°C° 0 mm 1 mps 748 mmHg 81%
    18:00 +6°C° 0 mm 1 mps 748 mmHg 85%
    19:00 +5°C° 0 mm 1 mps 747 mmHg 88%
    20:00 +4°C° 0 mm 2 mps 747 mmHg 89%
    21:00 +4°C° 0 mm 2 mps 747 mmHg 90%
    22:00 +4°C° 0 mm 2 mps 747 mmHg 91%
    23:00 +3°C° 0 mm 2 mps 746 mmHg 92%

    Day after tomorrow, 28 January, Tuesday

    Time Temperature Precipitation Wind Pressure Humidity
    00:00 +2°C° 0 mm 3 mps 746 mmHg 92%
    01:00 +2°C° 0 mm 3 mps 745 mmHg 92%
    02:00 +2°C° 0 mm 3 mps 744 mmHg 91%
    03:00 +1°C° 0 mm 4 mps 744 mmHg 90%
    04:00 +3°C° 0 mm 4 mps 743 mmHg 89%
    05:00 +3°C° 0 mm 4 mps 742 mmHg 87%
    06:00 +2°C° 0 mm 5 mps 742 mmHg 85%
    07:00 +3°C° 0 mm 5 mps 741 mmHg 83%
    08:00 +3°C° 0.1 mm 5 mps 741 mmHg 81%
    09:00 +4°C° 0.1 mm 6 mps 740 mmHg 79%
    10:00 +5°C° 0.1 mm 6 mps 740 mmHg 78%
    11:00 +7°C° 0.1 mm 6 mps 739 mmHg 76%
    12:00 +8°C° 0.1 mm 7 mps 738 mmHg 74%
    13:00 +9°C° 0.1 mm 7 mps 738 mmHg 72%
    14:00 +8°C° 0.2 mm 6 mps 737 mmHg 73%
    15:00 +8°C° 0.2 mm 6 mps 736 mmHg 74%
    16:00 +8°C° 0.2 mm 5 mps 736 mmHg 76%
    17:00 +8°C° 0.5 mm 5 mps 735 mmHg 77%
    18:00 +8°C° 0.5 mm 6 mps 735 mmHg 78%
    19:00 +8°C° 0.5 mm 6 mps 735 mmHg 79%
    20:00 +5°C° 2.3 mm 6 mps 735 mmHg 79%
    21:00 +4°C° 2.3 mm 7 mps 735 mmHg 79%
    22:00 +2°C° 2.3 mm 8 mps 736 mmHg 79%
    23:00 +2°C° 0.1 mm 6 mps 736 mmHg 78%

    29 January, Wednesday

    Time Temperature Precipitation Wind Pressure Humidity
    00:00 +2°C° 0.1 mm 5 mps 737 mmHg 77%
    01:00 +3°C° 0.1 mm 4 mps 738 mmHg 76%
    02:00 +3°C° 0 mm 4 mps 739 mmHg 78%
    03:00 +1°C° 0 mm 5 mps 739 mmHg 81%
    04:00 +1°C° 0 mm 5 mps 740 mmHg 84%
    05:00 +1°C° 0 mm 5 mps 740 mmHg 84%
    06:00 0°C° 0 mm 5 mps 740 mmHg 84%
    07:00 0°C° 0 mm 5 mps 740 mmHg 85%
    08:00 +1°C° 0 mm 5 mps 740 mmHg 78%
    09:00 +2°C° 0 mm 5 mps 740 mmHg 71%
    10:00 +3°C° 0 mm 5 mps 740 mmHg 65%
    11:00 +4°C° 0 mm 6 mps 739 mmHg 59%
    12:00 +5°C° 0 mm 6 mps 739 mmHg 54%
    13:00 +6°C° 0 mm 7 mps 739 mmHg 48%
    14:00 +5°C° 0 mm 6 mps 739 mmHg 52%
    15:00 +5°C° 0 mm 6 mps 739 mmHg 57%
    16:00 +4°C° 0 mm 6 mps 740 mmHg 61%
    17:00 +4°C° 0 mm 4 mps 741 mmHg 66%
    18:00 +3°C° 0 mm 3 mps 741 mmHg 72%
    19:00 +4°C° 0 mm 1 mps 742 mmHg 77%
    20:00 +3°C° 0 mm 2 mps 743 mmHg 77%
    21:00 +2°C° 0 mm 2 mps 743 mmHg 77%
    22:00 +2°C° 0 mm 2 mps 744 mmHg 77%
    23:00 +1°C° 0 mm 2 mps 744 mmHg 77%

    30 January, Thursday

    Time Temperature Precipitation Wind Pressure Humidity
    00:00 +1°C° 0 mm 2 mps 744 mmHg 77%
    01:00 +1°C° 0 mm 2 mps 745 mmHg 77%
    02:00 +1°C° 0 mm 2 mps 745 mmHg 77%
    03:00 +1°C° 0 mm 2 mps 745 mmHg 76%
    04:00 +1°C° 0 mm 2 mps 746 mmHg 76%
    05:00 +1°C° 0 mm 2 mps 746 mmHg 74%
    06:00 +1°C° 0 mm 2 mps 746 mmHg 72%
    07:00 +1°C° 0 mm 2 mps 747 mmHg 70%
    08:00 +2°C° 0 mm 2 mps 747 mmHg 64%
    09:00 +2°C° 0 mm 3 mps 748 mmHg 58%
    10:00 +3°C° 0 mm 3 mps 749 mmHg 52%
    11:00 +4°C° 0 mm 3 mps 749 mmHg 50%
    12:00 +4°C° 0 mm 3 mps 749 mmHg 48%
    13:00 +5°C° 0 mm 4 mps 749 mmHg 46%
    14:00 +5°C° 0 mm 3 mps 749 mmHg 49%
    15:00 +6°C° 0 mm 2 mps 749 mmHg 52%
    16:00 +5°C° 0 mm 2 mps 749 mmHg 55%
    17:00 +5°C° 0 mm 1 mps 749 mmHg 59%
    18:00 +4°C° 0 mm 1 mps 749 mmHg 63%
    19:00 +3°C° 0 mm 1 mps 750 mmHg 68%
    20:00 +3°C° 0 mm 1 mps 750 mmHg 69%
    21:00 +2°C° 0 mm 0 mps 750 mmHg 71%
    22:00 +2°C° 0 mm 0 mps 750 mmHg 72%
    23:00 +3°C° 0 mm 1 mps 750 mmHg 73%

    31 January, Friday

    Time Temperature Precipitation Wind Pressure Humidity
    00:00 +3°C° 0 mm 1 mps 750 mmHg 73%
    01:00 +3°C° 0 mm 1 mps 750 mmHg 73%
    02:00 +1°C° 0 mm 2 mps 750 mmHg 73%
    03:00 +1°C° 0 mm 2 mps 750 mmHg 73%
    04:00 +1°C° 0 mm 2 mps 749 mmHg 72%
    05:00 +1°C° 0 mm 2 mps 749 mmHg 71%
    06:00 +1°C° 0 mm 2 mps 749 mmHg 70%
    07:00 +1°C° 0 mm 2 mps 749 mmHg 69%
    08:00 +2°C° 0 mm 2 mps 749 mmHg 67%
    09:00 +2°C° 0 mm 3 mps 750 mmHg 65%
    10:00 +2°C° 0 mm 3 mps 750 mmHg 62%
    11:00 +4°C° 0 mm 3 mps 749 mmHg 62%
    12:00 +5°C° 0 mm 3 mps 749 mmHg 62%
    13:00 +6°C° 0 mm 4 mps 749 mmHg 61%
    14:00 +7°C° 0 mm 3 mps 749 mmHg 63%
    15:00 +7°C° 0 mm 2 mps 749 mmHg 65%
    16:00 +8°C° 0 mm 1 mps 749 mmHg 67%
    17:00 +7°C° 0 mm 1 mps 749 mmHg 71%
    18:00 +6°C° 0 mm 1 mps 749 mmHg 75%
    19:00 +5°C° 0 mm 1 mps 749 mmHg 79%
    20:00 +5°C° 0 mm 1 mps 749 mmHg 81%
    21:00 +5°C° 0 mm 1 mps 749 mmHg 84%
    22:00 +3°C° 0 mm 2 mps 749 mmHg 87%
    23:00 +3°C° 0 mm 2 mps 750 mmHg 87%
    Show more